User: anonymous   Login
Location: Bazugues
(43.4465°N, 0.3432°E)
Time: 00:13:14
(UTC+00:00)
Language:

Cosmos 2074 Rocket - Orbit

View from above orbital plane
View from above orbital plane
View from above satellite
View from above satellite

Ground track
Ground track

The orbit is defined by the following mean orbital elements,

1 20578U          26065.32409152 +.00000000 +00000-0 +85803-4 0 00008
2 20578  82.9470 155.7369 0014164  75.6847 344.6821 13.76636255    05
Epoch (UTC): 06 March 2026 07:46:41
Eccentricity: 0.0014164
inclination: 82.9470°
perigee height: 965 km
apogee height: 986 km
right ascension of ascending node: 155.7369°
argument of perigee: 75.6847°
revolutions per day: 13.76636255
mean anomaly at epoch: 344.6821°

The dashed part of the orbit path shows where the satellite is in the earth's shadow,  

DLR